Location: Rounton
(54.4000°N, 1.3500°W)
Time: 04:43:48
(UTC+00:00)

Vanguard 1 - Pass Details

Date: 02 December 2021
Orbit: 652 x 3830 km, 34.2° (Epoch: 17 January)

Event Time Altitude Azimuth Distance (km) Brightness Sun altitude
Exits shadow 07:02:23 - 271° (W) 7,156 13.9 -8.5°
Reaches altitude 10° 07:09:35 10° 255° (WSW) 5,856 13.6 -7.6°
Maximum altitude 07:16:34 14° 231° (SW) 4,883 13.4 -6.7°
Drops below altitude 10° 07:22:17 10° 205° (SSW) 4,598 13.6 -5.9°
Sets 07:27:42 0° 181° (S) 4,950 14.1 -5.3°
